Volver al catálogo

COSMOS 1432

ActivoMilitarLEO
NORAD 13764·PAYLOAD·🇷🇺 Russia

Lanzado Jan 19, 1983 desde Plesetsk Cosmodrome

Loading…

Próximos Pases (próximas 24 horas)

TLE

ActualizadoSource: Space-Track

Época: Sep 14, 2026, 08:54 UTC

1 13764U 83002D   26257.37122900 -.00000020  00000-0 -23936-4 0  9991
2 13764  74.0229 216.3099 0003555 302.4084 132.3381 12.49889629991992

Sigue COSMOS 1432 en tiempo real con AllMySat

Download on the App Store